Weather Roundup
Issued by NWS Chicago, IL

Home | Current Version | Previous Version | Graphics & Text | Print | Product List | Glossary On
Versions: 1 2 3 4 5 6 7 8 9 10 11 12 13 14 15 16 17 18 19 20 21 22 23 24 25 26 27 28 29 30 31 32 33 34 35 36 37 38 39 40 41 42 43 44 45 46 47 48 49 50
000
NZUS59 KLOT 272308
HRRLOT

CHICAGO AREA WEATHER ROUNDUP
NATIONAL WEATHER SERVICE CHICAGO/ROMEOVILLE IL
600 PM CDT FRI MAY 27 2016

NOTE: "FAIR" INDICATES FEW OR NO CLOUDS BELOW 12,000 FEET WITH NO
SIGNIFICANT WEATHER AND/OR OBSTRUCTIONS TO VISIBILITY.

* THESE STATIONS ARE NOT UNDER NWS QUALITY CONTROL. THEY ALSO MAY NOT
  REPORT WEATHER SUCH AS PRECIPITATION OR FOG.

ILZ005-006-012>014-019>023-280000-
NORTHEAST ILLINOIS

CITY           SKY/WX    TMP DP  RH WIND       PRES   REMARKS
OHARE          CLOUDY    79  65  62 S13       29.81F HX  81
MIDWAY         CLOUDY    77  68  73 S12       29.82F
AURORA         CLOUDY    75  68  78 S10       29.82F
LANSING*       CLOUDY    74  69  83 S8G17     29.84F
JOLIET*        PTSUNNY   81  66  61 S16G25    29.82S HX  83
WAUKEGAN       CLOUDY    68  66  93 SE8       29.83F
DUPAGE AIRPORT RAIN      75  68  78 SW10      29.82F
WHEELING       PTSUNNY   74  67  78 SW3       29.83F
KANKAKEE*      CLOUDY    79  65  62 S14G25    29.84S HX  81
MORRIS*        PTSUNNY   81  64  56 S16G23    29.80S HX  82
LEWIS AIRPORT* PTSUNNY   80  62  55 S17G23    29.81F HX  81
$$

WIZ051-052-058>065-066-070>072-280000-
SOUTHEAST WISCONSIN

CITY           SKY/WX    TMP DP  RH WIND       PRES   REMARKS
MILWAUKEE      RAIN      69  66  90 S13       29.83S FOG
KENOSHA*       LGT RAIN  70  67  90 S7        29.83S
RACINE*        CLOUDY    67  63  87 S8        29.85F
BURLINGTON     CLOUDY    71  66  84 S5        29.82S
WAUKESHA       CLOUDY    70  64  83 SE10      29.83S
WEST BEND      CLOUDY    68  64  88 SE10      29.81F
$$

INZ001>003-010>013-019-020-280000-
NORTHWEST INDIANA

CITY           SKY/WX    TMP DP  RH WIND       PRES   REMARKS
GARY*          PTSUNNY   75  73  94 S6        29.85F
MICHIGAN CITY* NOT AVBL
RENSSELAER*    NOT AVBL
VALPARAISO     PTSUNNY   73  68  84 SE9       29.87F
$$

LMZ740>746-280000-
SOUTHERN LAKE MICHIGAN

STATION/POSITION TIME  SKY/WX   TEMP WIND        PRES    VSBY
                                AIR  DIR/SP/G
                 (UTC)          (F)  (DEG/KT/KT) (MB)    (MI)
HARRISON CRIB    2200            70  150/ 13/ 14   N/A
BURNHAM HARBOR   2300            71  150/ 10/ 12   N/A
CALUMET HARBOR   2200            76              1009.9F
BURNS HARBOR     2200            72  180/  8/ 14 1011.9S
MICHIGAN CITY    2200            70  190/ 12/ 13   N/A
$$

ABBREVIATIONS USED IN REMARKS
   TC - TEMPERATURE IN CELSIUS
  WCI - WIND CHILL INDEX
   HX - HEAT INDEX
  VSB - VISIBILITY
$$



USA.gov is the U.S. government's official web portal to all federal, state and local government web resources and services.